SND28 YBGD-YBSU

Flight info

Callsign SND28
Flight time N/A
Altitude 33000
Route RAFFY T85 SCHEE/N0444F350 T85 AS T11 DOVUB H206 IDLEG V327 IGUPI DCT SEBVA
Aircraft A319/M-SDE3FGHIRWY/LB1

Departure

Time N/A
Airport Boolgeeda (YBGD)

Arrival

Time 2026-04-21 04:50
Airport Sunshine Coast Airport (YBSU)
Time Latitude Longitude Altitude Speed Heading
2026-04-21 00:43 -21.27072 119.61323 35045 ft 481 kts 80°
2026-04-21 00:43 -21.26858 119.64881 35046 ft 484 kts 88°
2026-04-21 00:44 -21.27665 119.72023 35050 ft 485 kts 99°
2026-04-21 00:44 -21.29018 119.79107 35047 ft 485 kts 100°
2026-04-21 00:45 -21.30998 119.89715 35048 ft 486 kts 100°
2026-04-21 00:45 -21.32288 119.96822 35048 ft 485 kts 99°
2026-04-21 00:46 -21.33564 120.03900 35051 ft 486 kts 99°
2026-04-21 00:46 -21.34842 120.11008 35054 ft 486 kts 99°
2026-04-21 00:47 -21.36112 120.18108 35055 ft 486 kts 99°
2026-04-21 00:47 -21.37376 120.25188 35055 ft 486 kts 99°
2026-04-21 00:48 -21.38638 120.32278 35057 ft 485 kts 99°
2026-04-21 00:48 -21.39901 120.39387 35056 ft 485 kts 99°
2026-04-21 00:49 -21.41157 120.46468 35057 ft 486 kts 99°
2026-04-21 00:49 -21.42410 120.53552 35059 ft 486 kts 99°
2026-04-21 00:50 -21.43665 120.60671 35059 ft 486 kts 99°
2026-04-21 00:50 -21.44919 120.67800 35058 ft 485 kts 99°
2026-04-21 00:51 -21.46161 120.74879 35061 ft 485 kts 99°
2026-04-21 00:51 -21.47404 120.81986 35061 ft 485 kts 99°
2026-04-21 00:52 -21.48646 120.89104 35061 ft 485 kts 99°
2026-04-21 00:52 -21.49882 120.96197 35061 ft 486 kts 99°
2026-04-21 00:53 -21.51111 121.03280 35059 ft 486 kts 99°
2026-04-21 00:53 -21.52346 121.10408 35062 ft 486 kts 99°
2026-04-21 00:54 -21.53577 121.17538 35064 ft 486 kts 99°
2026-04-21 00:54 -21.54802 121.24655 35066 ft 486 kts 99°
2026-04-21 00:55 -21.56023 121.31760 35067 ft 486 kts 99°
2026-04-21 00:55 -21.57242 121.38875 35066 ft 486 kts 99°
2026-04-21 00:56 -21.58465 121.46024 35063 ft 486 kts 99°
2026-04-21 00:56 -21.59675 121.53127 35061 ft 486 kts 99°
2026-04-21 00:57 -21.60881 121.60216 35060 ft 486 kts 99°
2026-04-21 00:57 -21.62093 121.67357 35058 ft 486 kts 98°
2026-04-21 00:58 -21.63294 121.74468 35057 ft 486 kts 98°
2026-04-21 00:58 -21.64502 121.81626 35057 ft 486 kts 98°
2026-04-21 00:59 -21.65698 121.88746 35057 ft 486 kts 99°
2026-04-21 00:59 -21.66888 121.95838 35059 ft 486 kts 99°
2026-04-21 01:00 -21.68085 122.02977 35059 ft 486 kts 98°
2026-04-21 01:00 -21.69277 122.10112 35059 ft 485 kts 98°
2026-04-21 01:01 -21.70457 122.17206 35062 ft 485 kts 98°
2026-04-21 01:01 -21.71758 122.24316 35067 ft 486 kts 102°
2026-04-21 01:02 -21.73262 122.31368 35067 ft 486 kts 102°
2026-04-21 01:02 -21.74774 122.38435 35065 ft 486 kts 102°
2026-04-21 01:03 -21.76280 122.45508 35062 ft 486 kts 102°
2026-04-21 01:03 -21.77782 122.52599 35061 ft 486 kts 102°
2026-04-21 01:04 -21.79269 122.59637 35058 ft 486 kts 102°
2026-04-21 01:04 -21.80761 122.66715 35057 ft 486 kts 101°
2026-04-21 01:05 -21.82246 122.73773 35057 ft 486 kts 101°
2026-04-21 01:05 -21.83734 122.80868 35056 ft 486 kts 101°
2026-04-21 01:06 -21.85217 122.87953 35058 ft 486 kts 101°
2026-04-21 01:06 -21.86692 122.95005 35058 ft 486 kts 101°
2026-04-21 01:07 -21.88168 123.02087 35059 ft 486 kts 101°
2026-04-21 01:07 -21.89640 123.09173 35058 ft 486 kts 101°
2026-04-21 01:08 -21.91111 123.16259 35058 ft 486 kts 101°
2026-04-21 01:08 -21.92576 123.23338 35056 ft 486 kts 101°
2026-04-21 01:09 -21.94038 123.30416 35061 ft 486 kts 102°
2026-04-21 01:09 -21.95495 123.37485 35063 ft 486 kts 102°
2026-04-21 01:10 -21.96958 123.44604 35074 ft 486 kts 101°
2026-04-21 01:10 -21.98411 123.51688 35074 ft 486 kts 102°
2026-04-21 01:11 -21.99855 123.58740 35077 ft 486 kts 102°
2026-04-21 01:11 -22.01302 123.65833 35076 ft 486 kts 101°
2026-04-21 01:12 -22.02747 123.72917 35079 ft 486 kts 101°
2026-04-21 01:12 -22.04191 123.80022 35084 ft 486 kts 101°
2026-04-21 01:13 -22.05632 123.87136 35085 ft 487 kts 101°
2026-04-21 01:13 -22.07071 123.94248 35088 ft 487 kts 101°
2026-04-21 01:14 -22.08507 124.01363 35089 ft 487 kts 101°
2026-04-21 01:14 -22.09938 124.08464 35091 ft 487 kts 101°
2026-04-21 01:15 -22.11369 124.15585 35084 ft 487 kts 101°
2026-04-21 01:15 -22.12799 124.22720 35077 ft 486 kts 101°
2026-04-21 01:16 -22.14214 124.29803 35080 ft 486 kts 101°
2026-04-21 01:16 -22.15632 124.36908 35080 ft 486 kts 101°
2026-04-21 01:17 -22.17050 124.44039 35084 ft 486 kts 101°
2026-04-21 01:17 -22.18460 124.51141 35085 ft 487 kts 101°
2026-04-21 01:18 -22.19869 124.58253 35087 ft 487 kts 101°
2026-04-21 01:18 -22.21285 124.65423 35091 ft 487 kts 101°
2026-04-21 01:19 -22.22689 124.72540 35092 ft 487 kts 101°
2026-04-21 01:19 -22.24088 124.79656 35093 ft 487 kts 101°
2026-04-21 01:20 -22.25481 124.86762 35096 ft 487 kts 101°
2026-04-21 01:20 -22.26875 124.93885 35098 ft 487 kts 101°
2026-04-21 01:21 -22.28272 125.01042 35099 ft 486 kts 101°
2026-04-21 01:21 -22.29654 125.08144 35103 ft 486 kts 101°
2026-04-21 01:22 -22.31035 125.15250 35104 ft 486 kts 101°
2026-04-21 01:22 -22.32418 125.22381 35107 ft 486 kts 101°
2026-04-21 01:23 -22.33797 125.29517 35107 ft 487 kts 101°
2026-04-21 01:23 -22.35178 125.36684 35109 ft 487 kts 101°
2026-04-21 01:24 -22.36549 125.43809 35112 ft 487 kts 101°
2026-04-21 01:24 -22.37916 125.50933 35110 ft 487 kts 101°
2026-04-21 01:25 -22.39285 125.58068 35114 ft 487 kts 101°
2026-04-21 01:25 -22.40656 125.65248 35117 ft 487 kts 100°
2026-04-21 01:26 -22.42017 125.72387 35116 ft 486 kts 100°
2026-04-21 01:26 -22.43361 125.79486 35116 ft 487 kts 100°
2026-04-21 01:27 -22.44720 125.86675 35119 ft 486 kts 100°
2026-04-21 01:27 -22.46061 125.93780 35120 ft 487 kts 100°
2026-04-21 01:28 -22.47409 126.00932 35120 ft 487 kts 100°
2026-04-21 01:28 -22.48756 126.08099 35121 ft 487 kts 100°
2026-04-21 01:29 -22.50092 126.15216 35123 ft 487 kts 100°
2026-04-21 01:29 -22.51434 126.22403 35123 ft 487 kts 100°
2026-04-21 01:30 -22.52768 126.29549 35123 ft 486 kts 100°
2026-04-21 01:30 -22.54099 126.36701 35124 ft 487 kts 100°
2026-04-21 01:31 -22.55425 126.43854 35125 ft 487 kts 100°
2026-04-21 01:31 -22.56750 126.51009 35125 ft 487 kts 100°
2026-04-21 01:32 -22.58071 126.58156 35125 ft 487 kts 100°
2026-04-21 01:32 -22.59391 126.65323 35126 ft 487 kts 100°
2026-04-21 01:33 -22.60709 126.72513 35127 ft 486 kts 100°
2026-04-21 01:33 -22.62023 126.79678 35127 ft 486 kts 100°
2026-04-21 01:34 -22.63331 126.86839 35129 ft 486 kts 100°
2026-04-21 01:34 -22.64630 126.93967 35128 ft 487 kts 100°
2026-04-21 01:35 -22.65933 127.01130 35130 ft 487 kts 100°
2026-04-21 01:35 -22.67235 127.08313 35130 ft 487 kts 100°
2026-04-21 01:36 -22.68536 127.15507 35136 ft 487 kts 100°
2026-04-21 01:36 -22.69821 127.22637 35137 ft 486 kts 100°
2026-04-21 01:37 -22.71113 127.29820 35138 ft 486 kts 100°
2026-04-21 01:37 -22.72397 127.36983 35140 ft 486 kts 100°
2026-04-21 01:38 -22.73678 127.44144 35143 ft 487 kts 100°
2026-04-21 01:38 -22.74958 127.51308 35146 ft 486 kts 100°
2026-04-21 01:39 -22.76231 127.58472 35154 ft 486 kts 100°
2026-04-21 01:39 -22.77505 127.65644 35151 ft 486 kts 100°
2026-04-21 01:40 -22.78774 127.72821 35155 ft 486 kts 100°
2026-04-21 01:40 -22.80045 127.80015 35155 ft 486 kts 100°
2026-04-21 01:41 -22.81305 127.87176 35157 ft 485 kts 100°
2026-04-21 01:41 -22.82563 127.94352 35163 ft 485 kts 100°
2026-04-21 01:42 -22.83816 128.01504 35159 ft 484 kts 100°
2026-04-21 01:42 -22.85065 128.08653 35163 ft 485 kts 100°
2026-04-21 01:43 -22.86314 128.15830 35161 ft 484 kts 100°
2026-04-21 01:43 -22.87551 128.22949 35166 ft 485 kts 100°
2026-04-21 01:44 -22.88788 128.30104 35163 ft 485 kts 100°
2026-04-21 01:44 -22.90025 128.37276 35164 ft 485 kts 100°
2026-04-21 01:45 -22.91263 128.44449 35163 ft 485 kts 100°
2026-04-21 01:45 -22.92497 128.51640 35164 ft 486 kts 100°
2026-04-21 01:46 -22.93728 128.58818 35166 ft 485 kts 100°
2026-04-21 01:46 -22.94949 128.65968 35166 ft 485 kts 100°
2026-04-21 01:47 -22.96174 128.73160 35161 ft 485 kts 100°
2026-04-21 01:47 -22.97391 128.80322 35159 ft 484 kts 100°
2026-04-21 01:48 -22.98603 128.87465 35157 ft 484 kts 100°
2026-04-21 01:48 -22.99862 128.94609 35159 ft 484 kts 101°
2026-04-21 01:49 -23.01139 129.01779 35162 ft 484 kts 101°
2026-04-21 01:49 -23.02402 129.08905 35165 ft 484 kts 101°
2026-04-21 01:50 -23.03669 129.16087 35171 ft 484 kts 101°
2026-04-21 01:50 -23.04932 129.23262 35176 ft 484 kts 101°
2026-04-21 01:51 -23.06190 129.30425 35178 ft 484 kts 101°
2026-04-21 01:51 -23.07441 129.37578 35177 ft 484 kts 101°
2026-04-21 01:52 -23.09313 129.48312 35177 ft 484 kts 101°
2026-04-21 01:53 -23.10561 129.55495 35169 ft 484 kts 101°
2026-04-21 01:53 -23.11802 129.62660 35172 ft 484 kts 101°
2026-04-21 01:54 -23.13039 129.69812 35167 ft 483 kts 100°
2026-04-21 01:54 -23.14275 129.76994 35167 ft 483 kts 101°
2026-04-21 01:55 -23.15502 129.84128 35166 ft 483 kts 101°
2026-04-21 01:55 -23.16727 129.91280 35164 ft 483 kts 101°
2026-04-21 01:56 -23.17951 129.98442 35175 ft 483 kts 101°
2026-04-21 01:56 -23.19169 130.05589 35178 ft 484 kts 101°
2026-04-21 01:57 -23.20390 130.12775 35182 ft 483 kts 101°
2026-04-21 01:57 -23.21600 130.19920 35187 ft 483 kts 101°
2026-04-21 01:58 -23.22816 130.27122 35193 ft 483 kts 101°
2026-04-21 01:58 -23.24018 130.34258 35193 ft 483 kts 101°
2026-04-21 01:59 -23.25226 130.41443 35196 ft 483 kts 101°
2026-04-21 01:59 -23.26419 130.48572 35196 ft 483 kts 101°
2026-04-21 02:00 -23.27618 130.55748 35194 ft 484 kts 101°
2026-04-21 02:00 -23.28818 130.62953 35192 ft 484 kts 101°
2026-04-21 02:01 -23.30009 130.70122 35188 ft 483 kts 101°
2026-04-21 02:01 -23.31194 130.77286 35188 ft 483 kts 101°
2026-04-21 02:02 -23.32379 130.84467 35188 ft 484 kts 101°
2026-04-21 02:02 -23.33563 130.91666 35189 ft 484 kts 101°
2026-04-21 02:03 -23.34741 130.98840 35190 ft 483 kts 101°
2026-04-21 02:03 -23.35914 131.06001 35191 ft 483 kts 101°
2026-04-21 02:04 -23.37082 131.13168 35193 ft 483 kts 101°
2026-04-21 02:04 -23.38247 131.20331 35194 ft 482 kts 101°
2026-04-21 02:05 -23.39408 131.27496 35195 ft 482 kts 101°
2026-04-21 02:05 -23.40573 131.34701 35196 ft 483 kts 101°
2026-04-21 02:06 -23.41729 131.41867 35197 ft 483 kts 101°
2026-04-21 02:06 -23.42878 131.49020 35200 ft 483 kts 101°
2026-04-21 02:07 -23.44027 131.56189 35203 ft 483 kts 101°
2026-04-21 02:07 -23.45176 131.63380 35211 ft 483 kts 101°
2026-04-21 02:08 -23.46325 131.70587 35219 ft 482 kts 101°
2026-04-21 02:08 -23.47459 131.77740 35226 ft 482 kts 101°
2026-04-21 02:09 -23.48591 131.84898 35227 ft 482 kts 101°
2026-04-21 02:09 -23.49729 131.92105 35224 ft 482 kts 101°
2026-04-21 02:10 -23.50856 131.99271 35217 ft 483 kts 101°
2026-04-21 02:10 -23.51987 132.06479 35215 ft 483 kts 101°
2026-04-21 02:11 -23.53111 132.13669 35213 ft 483 kts 101°
2026-04-21 02:11 -23.54227 132.20831 35221 ft 482 kts 101°
2026-04-21 02:12 -23.55341 132.28003 35218 ft 482 kts 101°
2026-04-21 02:12 -23.56451 132.35165 35216 ft 482 kts 101°
2026-04-21 02:13 -23.57559 132.42342 35218 ft 482 kts 101°
2026-04-21 02:13 -23.58666 132.49536 35219 ft 481 kts 101°
2026-04-21 02:14 -23.59763 132.56688 35221 ft 481 kts 101°
2026-04-21 02:14 -23.60866 132.63902 35224 ft 481 kts 101°
2026-04-21 02:15 -23.61957 132.71051 35220 ft 481 kts 101°
2026-04-21 02:15 -23.63046 132.78217 35222 ft 481 kts 101°
2026-04-21 02:16 -23.64136 132.85416 35221 ft 481 kts 101°
2026-04-21 02:16 -23.65217 132.92572 35226 ft 481 kts 101°
2026-04-21 02:17 -23.66301 132.99774 35218 ft 481 kts 101°
2026-04-21 02:17 -23.67373 133.06911 35225 ft 481 kts 101°
2026-04-21 02:18 -23.68446 133.14088 35224 ft 481 kts 101°
2026-04-21 02:18 -23.69516 133.21263 35221 ft 481 kts 101°
2026-04-21 02:19 -23.70587 133.28484 35222 ft 481 kts 101°
2026-04-21 02:19 -23.71653 133.35675 35221 ft 481 kts 101°
2026-04-21 02:20 -23.72712 133.42842 35219 ft 480 kts 102°
2026-04-21 02:20 -23.73764 133.49992 35215 ft 481 kts 102°
2026-04-21 02:21 -23.74822 133.57202 35212 ft 481 kts 102°
2026-04-21 02:21 -23.75873 133.64384 35206 ft 480 kts 102°
2026-04-21 02:22 -23.76914 133.71526 35205 ft 480 kts 101°
2026-04-21 02:22 -23.77962 133.78734 35206 ft 480 kts 101°
2026-04-21 02:23 -23.79008 133.85901 35208 ft 479 kts 102°
2026-04-21 02:23 -23.80465 133.92944 35210 ft 478 kts 108°
2026-04-21 02:24 -23.82149 133.99924 35207 ft 477 kts 108°
2026-04-21 02:24 -23.83841 134.06943 35202 ft 478 kts 108°
2026-04-21 02:25 -23.85509 134.13930 35194 ft 478 kts 108°
2026-04-21 02:25 -23.87171 134.20912 35193 ft 477 kts 108°
2026-04-21 02:26 -23.88838 134.27937 35192 ft 477 kts 108°
2026-04-21 02:26 -23.90488 134.34900 35191 ft 478 kts 108°
2026-04-21 02:27 -23.92152 134.41950 35189 ft 478 kts 108°
2026-04-21 02:27 -23.93804 134.48955 35190 ft 477 kts 108°
2026-04-21 02:28 -23.95447 134.55934 35186 ft 477 kts 108°
2026-04-21 02:28 -23.97088 134.62926 35184 ft 476 kts 108°
2026-04-21 02:29 -23.98733 134.69942 35176 ft 477 kts 108°
2026-04-21 02:29 -24.00369 134.76947 35172 ft 476 kts 108°
2026-04-21 02:30 -24.02002 134.83955 35169 ft 476 kts 108°
2026-04-21 02:30 -24.03626 134.90939 35168 ft 475 kts 108°
2026-04-21 02:31 -24.05249 134.97925 35167 ft 476 kts 108°
2026-04-21 02:31 -24.06867 135.04909 35166 ft 476 kts 108°
2026-04-21 02:32 -24.08490 135.11937 35164 ft 475 kts 108°
2026-04-21 02:32 -24.10095 135.18890 35162 ft 476 kts 108°
2026-04-21 02:33 -24.11710 135.25911 35162 ft 476 kts 108°
2026-04-21 02:33 -24.13321 135.32916 35160 ft 476 kts 108°
2026-04-21 02:34 -24.14927 135.39931 35157 ft 476 kts 108°
2026-04-21 02:34 -24.16528 135.46938 35159 ft 476 kts 108°
2026-04-21 02:35 -24.18120 135.53919 35158 ft 476 kts 109°
2026-04-21 02:35 -24.19718 135.60938 35155 ft 475 kts 108°
2026-04-21 02:36 -24.21309 135.67950 35150 ft 475 kts 108°
2026-04-21 02:36 -24.22887 135.74916 35149 ft 474 kts 108°
2026-04-21 02:37 -24.24471 135.81926 35148 ft 474 kts 108°
2026-04-21 02:37 -24.26046 135.88908 35147 ft 474 kts 108°
2026-04-21 02:38 -24.27622 135.95911 35144 ft 474 kts 108°
2026-04-21 02:38 -24.29195 136.02913 35137 ft 474 kts 108°
2026-04-21 02:39 -24.30762 136.09917 35128 ft 474 kts 108°
2026-04-21 02:39 -24.32322 136.16898 35129 ft 474 kts 109°
2026-04-21 02:40 -24.33880 136.23880 35127 ft 474 kts 108°
2026-04-21 02:40 -24.35440 136.30902 35125 ft 474 kts 109°
2026-04-21 02:41 -24.36988 136.37875 35124 ft 473 kts 109°
2026-04-21 02:41 -24.38539 136.44884 35121 ft 472 kts 109°
2026-04-21 02:42 -24.40078 136.51842 35121 ft 472 kts 109°
2026-04-21 02:42 -24.41620 136.58827 35120 ft 471 kts 109°
2026-04-21 02:43 -24.43157 136.65813 35119 ft 471 kts 108°
2026-04-21 02:43 -24.44680 136.72754 35120 ft 470 kts 108°
2026-04-21 02:44 -24.46202 136.79723 35118 ft 470 kts 108°
2026-04-21 02:44 -24.47706 136.86649 35117 ft 470 kts 108°
2026-04-21 02:45 -24.49216 136.93613 35117 ft 470 kts 109°
2026-04-21 02:45 -24.50721 137.00572 35115 ft 469 kts 109°
2026-04-21 02:46 -24.52223 137.07513 35116 ft 470 kts 109°
2026-04-21 02:46 -24.53721 137.14461 35114 ft 470 kts 109°
2026-04-21 02:47 -24.55221 137.21420 35113 ft 471 kts 108°
2026-04-21 02:47 -24.56728 137.28439 35113 ft 473 kts 108°
2026-04-21 02:48 -24.58226 137.35446 35116 ft 473 kts 108°
2026-04-21 02:48 -24.59722 137.42470 35111 ft 470 kts 109°
2026-04-21 02:49 -24.61199 137.49396 35104 ft 469 kts 109°
2026-04-21 02:49 -24.62684 137.56363 35101 ft 469 kts 109°
2026-04-21 02:50 -24.64160 137.63321 35103 ft 469 kts 109°
2026-04-21 02:50 -24.65633 137.70293 35100 ft 469 kts 109°
2026-04-21 02:51 -24.67093 137.77237 35100 ft 469 kts 109°
2026-04-21 02:51 -24.68564 137.84238 35098 ft 469 kts 109°
2026-04-21 02:52 -24.70019 137.91170 35096 ft 468 kts 109°
2026-04-21 02:52 -24.71475 137.98126 35097 ft 469 kts 109°
2026-04-21 02:53 -24.72933 138.05109 35093 ft 468 kts 109°
2026-04-21 02:53 -24.74376 138.12041 35093 ft 468 kts 109°
2026-04-21 02:54 -24.75839 138.19072 35092 ft 468 kts 109°
2026-04-21 02:54 -24.77287 138.26062 35092 ft 468 kts 109°
2026-04-21 02:55 -24.78729 138.33037 35093 ft 469 kts 109°
2026-04-21 02:55 -24.80161 138.39983 35093 ft 469 kts 109°
2026-04-21 02:56 -24.81599 138.46970 35094 ft 469 kts 109°
2026-04-21 02:56 -24.83741 138.57410 35094 ft 468 kts 109°
2026-04-21 02:57 -24.85173 138.64406 35096 ft 468 kts 109°
2026-04-21 02:57 -24.86593 138.71372 35095 ft 468 kts 109°
2026-04-21 02:58 -24.88018 138.78372 35096 ft 469 kts 109°
2026-04-21 02:58 -24.89434 138.85345 35097 ft 469 kts 109°
2026-04-21 02:59 -24.90842 138.92313 35097 ft 469 kts 109°
2026-04-21 02:59 -24.92263 138.99342 35105 ft 470 kts 109°
2026-04-21 03:00 -24.93666 139.06322 35110 ft 468 kts 109°
2026-04-21 03:00 -24.95063 139.13275 35098 ft 468 kts 109°
2026-04-21 03:01 -24.96468 139.20277 35096 ft 468 kts 109°
2026-04-21 03:01 -24.97855 139.27220 35096 ft 467 kts 109°
2026-04-21 03:02 -24.99248 139.34203 35097 ft 467 kts 109°
2026-04-21 03:02 -25.00638 139.41197 35098 ft 468 kts 109°
2026-04-21 03:03 -25.02023 139.48184 35105 ft 468 kts 110°
2026-04-21 03:03 -25.03406 139.55173 35108 ft 468 kts 110°
2026-04-21 03:04 -25.04781 139.62137 35106 ft 468 kts 110°
2026-04-21 03:04 -25.06154 139.69116 35107 ft 467 kts 109°
2026-04-21 03:05 -25.07528 139.76112 35108 ft 467 kts 109°
2026-04-21 03:05 -25.08893 139.83072 35107 ft 468 kts 109°
2026-04-21 03:06 -25.10259 139.90074 35108 ft 467 kts 109°
2026-04-21 03:06 -25.11621 139.97070 35105 ft 467 kts 109°
2026-04-21 03:07 -25.12982 140.04076 35103 ft 466 kts 109°
2026-04-21 03:07 -25.14326 140.11015 35104 ft 466 kts 109°
2026-04-21 03:08 -25.15681 140.18027 35100 ft 466 kts 109°
2026-04-21 03:08 -25.17023 140.24983 35104 ft 467 kts 109°
2026-04-21 03:09 -25.18366 140.31979 35101 ft 467 kts 109°
2026-04-21 03:09 -25.19699 140.38936 35099 ft 466 kts 109°
2026-04-21 03:10 -25.21039 140.45943 35098 ft 466 kts 109°
2026-04-21 03:10 -25.22364 140.52896 35099 ft 466 kts 110°
2026-04-21 03:11 -25.23694 140.59888 35098 ft 465 kts 110°
2026-04-21 03:11 -25.25014 140.66841 35096 ft 466 kts 109°
2026-04-21 03:12 -25.26339 140.73837 35096 ft 467 kts 109°
2026-04-21 03:12 -25.27657 140.80829 35096 ft 466 kts 109°
2026-04-21 03:13 -25.28973 140.87811 35098 ft 466 kts 109°
2026-04-21 03:13 -25.30287 140.94817 35100 ft 466 kts 109°
2026-04-21 03:14 -25.31593 141.01790 35102 ft 466 kts 109°
2026-04-21 03:14 -25.32902 141.08803 35101 ft 465 kts 109°
2026-04-21 03:15 -25.34192 141.15739 35098 ft 465 kts 109°
2026-04-21 03:15 -25.35494 141.22772 35104 ft 465 kts 109°
2026-04-21 03:16 -25.36781 141.29758 35105 ft 464 kts 109°
2026-04-21 03:16 -25.38063 141.36726 35105 ft 463 kts 110°
2026-04-21 03:17 -25.39343 141.43680 35108 ft 463 kts 110°
2026-04-21 03:17 -25.40620 141.50636 35111 ft 464 kts 110°
2026-04-21 03:18 -25.41902 141.57648 35109 ft 464 kts 110°
2026-04-21 03:18 -25.43173 141.64619 35117 ft 463 kts 110°
2026-04-21 03:19 -25.44439 141.71579 35119 ft 463 kts 109°
2026-04-21 03:19 -25.45701 141.78537 35121 ft 463 kts 109°
2026-04-21 03:20 -25.46957 141.85492 35120 ft 463 kts 110°
2026-04-21 03:20 -25.48213 141.92454 35122 ft 463 kts 110°
2026-04-21 03:21 -25.49466 141.99417 35125 ft 463 kts 110°
2026-04-21 03:21 -25.50713 142.06377 35127 ft 463 kts 110°
2026-04-21 03:22 -25.51965 142.13371 35125 ft 462 kts 110°
2026-04-21 03:22 -25.53207 142.20335 35126 ft 463 kts 110°
2026-04-21 03:23 -25.54443 142.27296 35127 ft 462 kts 110°
2026-04-21 03:23 -25.55671 142.34236 35123 ft 461 kts 110°
2026-04-21 03:24 -25.56900 142.41187 35124 ft 462 kts 110°
2026-04-21 03:24 -25.58129 142.48146 35126 ft 462 kts 110°
2026-04-21 03:25 -25.59352 142.55112 35124 ft 461 kts 110°
2026-04-21 03:25 -25.60572 142.62071 35124 ft 462 kts 110°
2026-04-21 03:26 -25.61790 142.69038 35123 ft 462 kts 110°
2026-04-21 03:26 -25.63006 142.76018 35128 ft 462 kts 110°
2026-04-21 03:27 -25.64213 142.82977 35126 ft 461 kts 110°
2026-04-21 03:27 -25.65409 142.89880 35128 ft 460 kts 110°
2026-04-21 03:28 -25.66614 142.96855 35131 ft 460 kts 110°
2026-04-21 03:28 -25.67811 143.03813 35132 ft 460 kts 110°
2026-04-21 03:29 -25.68999 143.10722 35135 ft 459 kts 110°
2026-04-21 03:29 -25.70189 143.17674 35138 ft 460 kts 110°
2026-04-21 03:30 -25.71378 143.24637 35139 ft 460 kts 110°
2026-04-21 03:30 -25.72551 143.31545 35140 ft 459 kts 110°
2026-04-21 03:31 -25.73734 143.38503 35147 ft 460 kts 110°
2026-04-21 03:31 -25.74910 143.45460 35144 ft 459 kts 110°
2026-04-21 03:32 -25.76077 143.52390 35148 ft 458 kts 110°
2026-04-21 03:32 -25.77244 143.59323 35142 ft 458 kts 110°
2026-04-21 03:33 -25.78405 143.66254 35143 ft 457 kts 110°
2026-04-21 03:33 -25.79567 143.73193 35145 ft 459 kts 110°
2026-04-21 03:34 -25.80714 143.80083 35154 ft 459 kts 110°
2026-04-21 03:34 -25.81869 143.87041 35150 ft 457 kts 110°
2026-04-21 03:35 -25.83013 143.93942 35151 ft 458 kts 111°
2026-04-21 03:35 -25.84161 144.00879 35151 ft 459 kts 110°
2026-04-21 03:36 -25.85308 144.07848 35156 ft 458 kts 110°
2026-04-21 03:36 -25.86445 144.14766 35143 ft 459 kts 110°
2026-04-21 03:37 -25.87589 144.21741 35142 ft 459 kts 110°
2026-04-21 03:37 -25.88727 144.28717 35153 ft 459 kts 110°
2026-04-21 03:38 -25.89601 144.35756 35169 ft 465 kts 104°
2026-04-21 03:38 -25.89956 144.42915 35166 ft 466 kts 102°
2026-04-21 03:39 -25.90261 144.50056 35148 ft 465 kts 103°
2026-04-21 03:39 -25.90573 144.57165 35157 ft 464 kts 103°
2026-04-21 03:40 -25.90889 144.64293 35154 ft 463 kts 103°
2026-04-21 03:40 -25.91205 144.71434 35148 ft 464 kts 102°
2026-04-21 03:41 -25.91518 144.78554 35148 ft 464 kts 102°
2026-04-21 03:41 -25.91824 144.85706 35159 ft 464 kts 103°
2026-04-21 03:42 -25.92128 144.92810 35153 ft 462 kts 102°
2026-04-21 03:42 -25.92427 144.99931 35163 ft 462 kts 102°
2026-04-21 03:43 -25.92725 145.07005 35153 ft 461 kts 102°
2026-04-21 03:43 -25.93020 145.14117 35162 ft 461 kts 102°
2026-04-21 03:44 -25.93308 145.21227 35168 ft 462 kts 102°
2026-04-21 03:44 -25.93594 145.28343 35164 ft 461 kts 102°
2026-04-21 03:45 -25.93874 145.35391 35158 ft 461 kts 102°
2026-04-21 03:45 -25.94157 145.42525 35148 ft 462 kts 102°
2026-04-21 03:46 -25.94431 145.49649 35163 ft 462 kts 102°
2026-04-21 03:46 -25.94700 145.56700 35165 ft 461 kts 102°
2026-04-21 03:47 -25.94969 145.63797 35169 ft 460 kts 101°
2026-04-21 03:47 -25.95235 145.70872 35158 ft 460 kts 101°
2026-04-21 03:48 -25.95495 145.77966 35161 ft 459 kts 101°
2026-04-21 03:48 -25.95753 145.85043 35153 ft 460 kts 101°
2026-04-21 03:49 -25.96004 145.92096 35153 ft 458 kts 101°
2026-04-21 03:49 -25.96256 145.99178 35166 ft 458 kts 100°
2026-04-21 03:50 -25.96504 146.06221 35168 ft 460 kts 101°
2026-04-21 03:50 -25.96745 146.13280 35167 ft 457 kts 100°
2026-04-21 03:51 -25.96984 146.20320 35167 ft 458 kts 100°
2026-04-21 03:51 -25.97219 146.27365 35182 ft 458 kts 100°
2026-04-21 03:52 -25.97451 146.34410 35169 ft 458 kts 100°
2026-04-21 03:52 -25.97678 146.41469 35177 ft 457 kts 100°
2026-04-21 03:53 -25.97902 146.48451 35173 ft 456 kts 100°
2026-04-21 03:53 -25.98124 146.55486 35176 ft 456 kts 100°
2026-04-21 03:54 -25.98340 146.62476 35170 ft 455 kts 100°
2026-04-21 03:54 -25.98558 146.69508 35172 ft 455 kts 99°
2026-04-21 03:55 -25.98769 146.76514 35178 ft 455 kts 99°
2026-04-21 03:55 -25.98976 146.83517 35181 ft 456 kts 98°
2026-04-21 03:56 -25.99177 146.90532 35189 ft 455 kts 98°
2026-04-21 03:56 -25.99379 146.97557 35184 ft 455 kts 98°
2026-04-21 03:57 -25.99575 147.04546 35185 ft 455 kts 98°
2026-04-21 03:57 -25.99768 147.11552 35182 ft 454 kts 98°
2026-04-21 03:58 -25.99956 147.18545 35180 ft 453 kts 98°
2026-04-21 03:58 -26.00145 147.25532 35179 ft 453 kts 98°
2026-04-21 03:59 -26.00326 147.32474 35181 ft 454 kts 98°
2026-04-21 04:00 -26.00595 147.42964 35178 ft 453 kts 98°
2026-04-21 04:00 -26.00768 147.49951 35183 ft 453 kts 98°
2026-04-21 04:01 -26.00941 147.56915 35177 ft 453 kts 98°
2026-04-21 04:01 -26.01109 147.63888 35173 ft 453 kts 98°
2026-04-21 04:02 -26.01272 147.70869 35166 ft 453 kts 97°
2026-04-21 04:02 -26.01432 147.77837 35172 ft 453 kts 97°
2026-04-21 04:03 -26.01592 147.84854 35174 ft 453 kts 97°
2026-04-21 04:03 -26.01745 147.91808 35171 ft 453 kts 97°
2026-04-21 04:04 -26.01895 147.98759 35174 ft 452 kts 97°
2026-04-21 04:04 -26.02046 148.05771 35178 ft 453 kts 97°
2026-04-21 04:05 -26.02189 148.12732 35175 ft 452 kts 97°
2026-04-21 04:05 -26.02331 148.19694 35179 ft 453 kts 97°
2026-04-21 04:06 -26.02470 148.26662 35182 ft 453 kts 97°
2026-04-21 04:06 -26.02607 148.33650 35182 ft 452 kts 97°
2026-04-21 04:07 -26.02740 148.40631 35178 ft 452 kts 97°
2026-04-21 04:07 -26.02905 148.47572 35174 ft 450 kts 98°
2026-04-21 04:08 -26.03281 148.54500 35173 ft 450 kts 99°
2026-04-21 04:08 -26.03672 148.61406 35167 ft 450 kts 99°
2026-04-21 04:09 -26.04058 148.68346 35164 ft 450 kts 98°
2026-04-21 04:09 -26.04440 148.75282 35163 ft 451 kts 98°
2026-04-21 04:10 -26.04816 148.82182 35161 ft 451 kts 98°
2026-04-21 04:10 -26.05192 148.89137 35158 ft 451 kts 98°
2026-04-21 04:11 -26.05560 148.96039 35156 ft 450 kts 98°
2026-04-21 04:11 -26.05929 149.02989 35153 ft 450 kts 98°
2026-04-21 04:12 -26.06291 149.09886 35153 ft 449 kts 98°
2026-04-21 04:12 -26.06652 149.16809 35152 ft 450 kts 98°
2026-04-21 04:13 -26.07009 149.23749 35156 ft 451 kts 98°
2026-04-21 04:13 -26.07364 149.30679 35159 ft 451 kts 98°
2026-04-21 04:14 -26.07716 149.37611 35160 ft 451 kts 98°
2026-04-21 04:14 -26.08062 149.44536 35157 ft 451 kts 98°
2026-04-21 04:15 -26.08407 149.51492 35158 ft 450 kts 98°
2026-04-21 04:15 -26.08749 149.58400 35157 ft 450 kts 98°
2026-04-21 04:16 -26.09086 149.65340 35158 ft 450 kts 98°
2026-04-21 04:16 -26.09423 149.72311 35161 ft 451 kts 98°
2026-04-21 04:17 -26.09752 149.79217 35162 ft 451 kts 98°
2026-04-21 04:17 -26.10082 149.86191 35163 ft 450 kts 97°
2026-04-21 04:18 -26.10406 149.93124 35165 ft 451 kts 98°
2026-04-21 04:18 -26.10726 150.00047 35166 ft 450 kts 98°
2026-04-21 04:19 -26.11043 150.06970 35158 ft 451 kts 98°
2026-04-21 04:19 -26.11359 150.13910 35152 ft 451 kts 98°
2026-04-21 04:20 -26.11672 150.20859 35154 ft 451 kts 98°
2026-04-21 04:20 -26.11982 150.27830 35153 ft 452 kts 98°
2026-04-21 04:21 -26.12288 150.34784 35154 ft 452 kts 98°
2026-04-21 04:21 -26.12589 150.41736 34795 ft 450 kts 98°
2026-04-21 04:21 -26.12738 150.45224 34522 ft 447 kts 98°
2026-04-21 04:22 -26.12884 150.48654 34247 ft 445 kts 98°
2026-04-21 04:22 -26.13027 150.52055 33974 ft 442 kts 98°
2026-04-21 04:22 -26.13172 150.55452 33706 ft 441 kts 98°
2026-04-21 04:22 -26.13317 150.58836 33449 ft 441 kts 98°
2026-04-21 04:23 -26.13461 150.62225 33190 ft 441 kts 98°
2026-04-21 04:23 -26.13606 150.65660 32925 ft 440 kts 97°
2026-04-21 04:23 -26.13748 150.69046 32665 ft 440 kts 97°
2026-04-21 04:23 -26.13889 150.72452 32405 ft 441 kts 98°
2026-04-21 04:24 -26.14028 150.75821 32151 ft 441 kts 98°
2026-04-21 04:24 -26.14168 150.79240 31895 ft 441 kts 98°
2026-04-21 04:24 -26.14305 150.82628 31637 ft 441 kts 98°
2026-04-21 04:24 -26.14523 150.86012 31379 ft 438 kts 101°
2026-04-21 04:25 -26.14918 150.89366 31123 ft 436 kts 105°
2026-04-21 04:25 -26.15493 150.92667 30868 ft 433 kts 108°
2026-04-21 04:25 -26.16234 150.95862 30620 ft 431 kts 112°
2026-04-21 04:25 -26.17155 150.99028 30363 ft 428 kts 115°
2026-04-21 04:26 -26.18179 151.02135 30109 ft 427 kts 116°
2026-04-21 04:26 -26.19215 151.05228 29854 ft 427 kts 116°
2026-04-21 04:26 -26.20254 151.08327 29602 ft 427 kts 116°
2026-04-21 04:26 -26.21274 151.11383 29343 ft 427 kts 116°
2026-04-21 04:27 -26.22307 151.14487 29081 ft 427 kts 115°
2026-04-21 04:27 -26.23334 151.17584 28821 ft 425 kts 115°
2026-04-21 04:27 -26.24356 151.20668 28550 ft 423 kts 115°
2026-04-21 04:27 -26.25359 151.23700 28272 ft 421 kts 115°
2026-04-21 04:28 -26.26369 151.26756 27988 ft 418 kts 115°
2026-04-21 04:28 -26.27367 151.29778 27643 ft 416 kts 115°
2026-04-21 04:28 -26.28361 151.32788 27350 ft 414 kts 115°
2026-04-21 04:28 -26.29351 151.35788 27096 ft 413 kts 115°
2026-04-21 04:29 -26.30334 151.38773 26839 ft 411 kts 115°
2026-04-21 04:29 -26.31309 151.41734 26581 ft 409 kts 115°
2026-04-21 04:29 -26.32290 151.44714 26325 ft 407 kts 115°
2026-04-21 04:29 -26.33261 151.47669 26069 ft 406 kts 115°
2026-04-21 04:30 -26.34217 151.50577 25819 ft 404 kts 115°
2026-04-21 04:30 -26.35181 151.53516 25565 ft 402 kts 115°
2026-04-21 04:30 -26.36138 151.56432 25307 ft 400 kts 115°
2026-04-21 04:30 -26.37089 151.59334 25053 ft 398 kts 115°
2026-04-21 04:31 -26.38027 151.62198 24803 ft 397 kts 115°
2026-04-21 04:31 -26.38969 151.65079 24548 ft 394 kts 115°
2026-04-21 04:31 -26.39912 151.67961 24287 ft 393 kts 114°
2026-04-21 04:31 -26.40846 151.70819 24029 ft 392 kts 114°
2026-04-21 04:32 -26.41773 151.73656 23774 ft 390 kts 114°
2026-04-21 04:32 -26.42698 151.76488 23515 ft 388 kts 114°
2026-04-21 04:32 -26.43613 151.79295 23257 ft 386 kts 114°
2026-04-21 04:32 -26.44526 151.82097 23002 ft 385 kts 114°
2026-04-21 04:33 -26.45441 151.84906 22749 ft 384 kts 114°
2026-04-21 04:33 -26.46346 151.87691 22503 ft 382 kts 114°
2026-04-21 04:33 -26.47180 151.90483 22248 ft 384 kts 107°
2026-04-21 04:33 -26.47471 151.93484 21993 ft 390 kts 93°
2026-04-21 04:34 -26.47105 151.96469 21742 ft 395 kts 79°
2026-04-21 04:34 -26.46356 151.99422 21497 ft 394 kts 77°
2026-04-21 04:34 -26.45571 152.02325 21251 ft 392 kts 77°
2026-04-21 04:34 -26.44789 152.05217 21006 ft 390 kts 77°
2026-04-21 04:35 -26.44018 152.08099 20769 ft 388 kts 77°
2026-04-21 04:35 -26.43253 152.10977 20523 ft 386 kts 77°
2026-04-21 04:35 -26.42491 152.13860 20269 ft 384 kts 77°
2026-04-21 04:35 -26.41747 152.16690 20023 ft 382 kts 77°
2026-04-21 04:36 -26.41006 152.19505 19778 ft 380 kts 77°
2026-04-21 04:36 -26.40263 152.22333 19543 ft 379 kts 77°
2026-04-21 04:36 -26.39524 152.25139 19293 ft 377 kts 77°
2026-04-21 04:36 -26.38789 152.27928 19032 ft 374 kts 77°
2026-04-21 04:37 -26.38054 152.30719 18513 ft 374 kts 77°
2026-04-21 04:37 -26.37325 152.33489 17967 ft 376 kts 77°
2026-04-21 04:37 -26.36594 152.36266 17409 ft 377 kts 77°
2026-04-21 04:37 -26.35858 152.39050 16846 ft 378 kts 76°
2026-04-21 04:38 -26.35118 152.41852 16270 ft 378 kts 76°
2026-04-21 04:38 -26.34374 152.44669 15698 ft 378 kts 76°
2026-04-21 04:38 -26.33637 152.47453 15131 ft 378 kts 76°
2026-04-21 04:38 -26.32889 152.50276 14565 ft 377 kts 76°
2026-04-21 04:39 -26.32149 152.53069 14000 ft 376 kts 76°
2026-04-21 04:39 -26.31420 152.55823 13456 ft 375 kts 76°
2026-04-21 04:39 -26.30682 152.58597 12888 ft 374 kts 76°
2026-04-21 04:39 -26.29940 152.61380 12327 ft 373 kts 76°
2026-04-21 04:40 -26.29273 152.64137 11882 ft 361 kts 83°
2026-04-21 04:40 -26.29358 152.66836 11168 ft 342 kts 108°
2026-04-21 04:40 -26.30476 152.69052 10581 ft 319 kts 134°
2026-04-21 04:40 -26.31936 152.70737 10554 ft 292 kts 133°
2026-04-21 04:41 -26.33224 152.72433 10542 ft 280 kts 129°
2026-04-21 04:41 -26.34376 152.74138 10151 ft 270 kts 127°
2026-04-21 04:41 -26.35422 152.75797 9663 ft 255 kts 127°
2026-04-21 04:41 -26.36387 152.77373 9165 ft 237 kts 126°
2026-04-21 04:42 -26.37276 152.78841 8680 ft 226 kts 126°
2026-04-21 04:42 -26.38147 152.80281 8182 ft 221 kts 126°
2026-04-21 04:42 -26.38999 152.81691 7702 ft 220 kts 126°
2026-04-21 04:42 -26.39842 152.83092 7282 ft 218 kts 126°
2026-04-21 04:43 -26.40686 152.84494 6855 ft 216 kts 126°
2026-04-21 04:43 -26.41516 152.85873 6438 ft 215 kts 126°
2026-04-21 04:43 -26.42347 152.87256 6030 ft 213 kts 126°
2026-04-21 04:43 -26.43129 152.88623 5681 ft 210 kts 119°
2026-04-21 04:44 -26.43656 152.90138 5386 ft 207 kts 109°
2026-04-21 04:44 -26.44030 152.91663 5073 ft 204 kts 107°
2026-04-21 04:44 -26.44384 152.93178 4772 ft 200 kts 107°
2026-04-21 04:44 -26.44722 152.94626 4611 ft 186 kts 107°
2026-04-21 04:45 -26.45113 152.95975 4287 ft 179 kts 122°
2026-04-21 04:45 -26.45958 152.96924 3988 ft 170 kts 143°
2026-04-21 04:45 -26.46886 152.97697 3703 ft 165 kts 144°
2026-04-21 04:45 -26.47791 152.98454 3403 ft 160 kts 143°
2026-04-21 04:46 -26.48669 152.99196 3085 ft 156 kts 143°
2026-04-21 04:46 -26.49523 152.99921 2748 ft 150 kts 142°
2026-04-21 04:46 -26.50329 153.00607 2429 ft 143 kts 142°
2026-04-21 04:46 -26.51111 153.01276 2089 ft 139 kts 142°
2026-04-21 04:47 -26.51870 153.01924 1760 ft 136 kts 141°
2026-04-21 04:47 -26.52600 153.02548 1463 ft 130 kts 141°
2026-04-21 04:47 -26.53298 153.03148 1245 ft 124 kts 142°
2026-04-21 04:47 -26.53979 153.03734 1083 ft 123 kts 142°
2026-04-21 04:48 -26.54651 153.04326 913 ft 123 kts 141°
2026-04-21 04:48 -26.55327 153.04909 735 ft 122 kts 144°
2026-04-21 04:48 -26.56018 153.05467 580 ft 122 kts 143°
2026-04-21 04:48 -26.56688 153.06044 449 ft 122 kts 143°
2026-04-21 04:49 -26.57359 153.06616 292 ft 121 kts 143°
2026-04-21 04:49 -26.58025 153.07190 141 ft 120 kts 143°
2026-04-21 04:49 -26.58680 153.07758 32 ft 114 kts 142°
2026-04-21 04:49 -26.59213 153.08212 33 ft 72 kts 142°
2026-04-21 04:50 -26.59495 153.08455 30 ft 39 kts 143°
2026-04-21 04:50 -26.59698 153.08629 28 ft 35 kts 142°
2026-04-21 04:50 -26.59883 153.08789 26 ft 31 kts 142°
2026-04-21 04:50 -26.60017 153.08902 26 ft 14 kts 144°
2026-04-21 04:51 -26.60099 153.08896 26 ft 13 kts 225°
2026-04-21 04:51 -26.60148 153.08823 26 ft 8 kts 250°
2026-04-21 04:51 -26.60194 153.08821 26 ft 8 kts 146°
2026-04-21 04:51 -26.60246 153.08868 26 ft 10 kts 140°
2026-04-21 04:52 -26.60305 153.08919 26 ft 7 kts 143°
2026-04-21 04:52 -26.60349 153.08958 26 ft 8 kts 141°
2026-04-21 04:52 -26.60404 153.09006 25 ft 10 kts 142°
2026-04-21 04:52 -26.60465 153.09058 25 ft 11 kts 142°
2026-04-21 04:53 -26.60545 153.09064 25 ft 12 kts 196°
2026-04-21 04:53 -26.60611 153.09044 26 ft 7 kts 194°
2026-04-21 04:53 -26.60618 153.09006 25 ft 7 kts 302°
2026-04-21 04:53 -26.60601 153.08957 26 ft 5 kts 284°
2026-04-21 04:54 -26.60596 153.08936 26 ft 0 kts 283°